K3TOW Weather Reports


time (UTC)temp
F
wind
direction
speed
knots
gust
knots
rain 1hr
in
rain 24hr
in
rain mn
in
humidity
%
barometer
mb
20260504100212 35 0 0.0 0.0 0.00 0.00 0.00 92 1010.3
20260504082004 37 0 0.0 0.0 0.00 0.00 0.00 91 1010.7
20260504081003 37 0 0.0 0.0 0.00 0.00 0.00 91 1010.7
20260504050213 38 0 0.0 0.0 0.00 0.00 0.00 89 1010.7
20260504045003 39 0 0.0 0.0 0.00 0.00 0.00 88 1010.6
20260504044003 39 0 0.0 0.0 0.00 0.00 0.00 88 1010.7
20260504043003 39 0 0.0 0.0 0.00 0.00 0.00 88 1010.6
20260504042003 39 0 0.0 0.0 0.00 0.00 0.00 87 1010.5
20260504041214 40 0 0.0 0.0 0.00 0.00 0.00 87 1010.5
20260504040004 40 0 0.0 0.0 0.00 0.00 0.00 87 1010.4
20260504035003 40 0 0.0 0.0 0.00 0.00 0.00 86 1010.5
20260504034003 40 0 0.0 0.0 0.00 0.00 0.00 85 1010.3
20260504033003 41 0 0.0 0.0 0.00 0.00 0.00 85 1010.3
20260504032003 41 0 0.0 0.0 0.00 0.00 0.00 84 1010.3
20260504031003 42 0 0.0 0.0 0.00 0.00 0.00 84 1010.3
20260504030214 42 0 0.0 0.0 0.00 0.00 0.00 83 1010.2
20260504025214 42 0 0.0 0.0 0.00 0.00 0.00 83 1010.2
20260504024003 43 0 0.0 0.0 0.00 0.00 0.00 81 1010.3
20260504023003 43 0 0.0 0.0 0.00 0.00 0.00 80 1010.3
20260504022003 43 0 0.0 0.0 0.00 0.00 0.00 80 1010.2
20260504021003 44 0 0.0 0.0 0.00 0.00 0.00 78 1010.2
20260504020003 44 0 0.0 0.0 0.00 0.00 0.00 78 1010.2
20260504015003 45 0 0.0 0.0 0.00 0.00 0.00 74 1010.1
20260504014003 46 0 0.0 0.0 0.00 0.00 0.00 73 1010.1
20260504013213 46 0 0.0 0.0 0.00 0.00 0.00 72 1010.0
20260504012003 47 0 0.0 0.0 0.00 0.00 0.00 69 1009.9
20260504011003 48 0 0.0 0.0 0.00 0.00 0.00 68 1009.8
20260504010003 49 0 0.0 0.0 0.00 0.00 0.00 64 1009.5
20260504005004 50 0 0.0 0.0 0.00 0.00 0.00 63 1009.7
20260504004003 52 0 0.0 0.0 0.00 0.00 0.00 59 1009.6
20260504003003 53 0 0.0 0.0 0.00 0.00 0.00 56 1009.5
20260504002003 54 37 0.0 1.7 0.00 0.00 0.00 49 1009.4
20260504001003 55 37 0.9 1.7 0.00 0.00 0.00 48 1009.3
20260504000003 56 39 0.9 2.6 0.00 0.00 0.00 45 1009.2
20260503235003 57 67 0.9 7.0 0.00 0.00 0.00 43 1009.1
20260503234003 58 45 0.9 4.3 0.00 0.00 0.00 44 1009.0
20260503233003 58 8 0.9 7.0 0.00 0.00 0.00 41 1009.0
20260503232003 59 54 0.9 5.2 0.00 0.00 0.00 40 1008.9
20260503231003 59 29 2.6 8.7 0.00 0.00 0.00 37 1008.9
20260503230003 60 346 1.7 7.0 0.00 0.00 0.00 37 1009.0
20260503225003 60 36 1.7 9.6 0.00 0.00 0.00 36 1008.9
20260503224003 61 18 2.6 6.1 0.00 0.00 0.00 36 1008.9
20260503223003 60 23 2.6 7.8 0.00 0.00 0.00 38 1009.0
20260503222003 60 19 1.7 5.2 0.00 0.00 0.00 40 1008.9
20260503221003 60 32 1.7 6.1 0.00 0.00 0.00 39 1008.8
20260503220214 60 354 2.6 7.0 0.00 0.00 0.00 37 1008.8
20260503215003 60 1 1.7 6.1 0.00 0.00 0.00 36 1008.9
20260503214003 62 16 1.7 7.8 0.00 0.00 0.00 36 1008.7
20260503213003 61 22 2.6 11.3 0.00 0.00 0.00 36 1008.6
20260503212003 61 351 2.6 8.7 0.00 0.00 0.00 36 1008.6
20260503211003 61 7 3.5 11.3 0.00 0.00 0.00 34 1008.6
20260503210003 61 341 3.5 10.4 0.00 0.00 0.00 34 1008.6
20260503205003 61 339 2.6 7.8 0.00 0.00 0.00 35 1008.4
20260503204003 61 352 3.5 9.6 0.00 0.00 0.00 35 1008.5
20260503203213 60 353 3.5 8.7 0.00 0.00 0.00 34 1008.4
20260503202213 60 48 1.7 6.1 0.00 0.00 0.00 35 1008.5
20260503201003 59 348 2.6 7.8 0.00 0.00 0.00 34 1008.6
20260503200003 60 355 3.5 10.4 0.00 0.00 0.00 34 1008.7
20260503195003 60 328 1.7 9.6 0.00 0.00 0.00 33 1008.8
20260503194003 60 328 1.7 10.4 0.00 0.00 0.00 33 1008.9
20260503193003 60 352 1.7 5.2 0.00 0.00 0.00 33 1009.2
20260503192003 60 28 1.7 10.4 0.00 0.00 0.00 33 1009.3
20260503191003 60 359 2.6 9.6 0.00 0.00 0.00 34 1009.4
20260503190003 60 329 2.6 7.8 0.00 0.00 0.00 34 1009.4
20260503185003 60 353 2.6 7.8 0.00 0.00 0.00 34 1009.5
20260503184212 59 360 3.5 9.6 0.00 0.00 0.00 35 1009.8
20260503183003 58 339 2.6 12.2 0.00 0.00 0.00 32 1009.9
20260503182212 58 345 2.6 8.7 0.00 0.00 0.00 37 1009.9
20260503181212 58 352 2.6 7.0 0.00 0.00 0.00 36 1009.9
20260503180003 57 350 3.5 10.4 0.00 0.00 0.00 36 1010.3
20260503175003 58 8 3.5 9.6 0.00 0.00 0.00 37 1010.3
20260503174003 57 353 2.6 8.7 0.00 0.00 0.00 38 1010.4
20260503173003 56 339 3.5 9.6 0.00 0.00 0.00 37 1010.7
20260503172212 55 336 2.6 7.8 0.00 0.00 0.00 38 1010.7
20260503171214 54 330 3.5 8.7 0.00 0.00 0.00 38 1010.8
20260503170214 54 332 2.6 9.6 0.00 0.00 0.00 40 1010.9
20260503151003 51 338 2.6 8.7 0.00 0.00 0.00 40 1011.6
20260503131003 45 305 1.7 7.8 0.00 0.00 0.00 60 1012.2